Location: Flotzheim
(48.8375°N, 10.8136°E)
Time: 17:33:11
(UTC+00:00)

Lacrosse 5 - Pass Details

Date: 23 January 2021
Orbit: 715 x 724 km, 57.0° (Epoch: 28 February)

Event Time Altitude Azimuth Distance (km) Brightness Sun altitude
Rises 16:37:41 0° 304° (NW) 3,124 5.7 -6.4°
Reaches altitude 10° 16:40:04 10° 305° (NW) 2,201 4.9 -6.8°
Maximum altitude 16:45:09 86° 35° (NE) 723 1.9 -7.5°
Drops below altitude 10° 16:50:12 10° 125° (SE) 2,193 4.0 -8.3°
Sets 16:52:34 0° 126° (SE) 3,111 4.8 -8.7°
